Flag for Brazil Weather past 2 weeks in Florianópolis, Santa Catarina, Brazil

Now
72 °F

Passing clouds.


Feels Like: 72 °F
Forecast: N/A
Wind: 3 mph from Southeast

Location: Florianopolis Aeroporto

Current Time: Apr 26, 2015 at 7:35:00 PM

Latest Report: Apr 26, 2015 at 6:00 PM


Visibility: N/A

Pressure: 30.12 "Hg

Humidity: 78%

Dew point: 64 °F

Location of FlorianópolisLocation

Historic Weather in Florianópolis — Graph

°F

Florianópolis temperature yesterday

Maximum temperature yesterday: 77 °F (at 12:00 PM)
Minimum temperature yesterday: 66 °F (at 5:00 AM)
Average temperature yesterday: 71 °F

Past Weeks' High & Low Weather Summary

 TemperatureHumidityPressure
High82 °F (Apr 14, 1:00 PM)94% (Apr 12, 1:00 AM)30.18 "Hg (Apr 12, 1:00 AM)
Low64 °F (Apr 26, 6:00 AM)57% (Apr 25, 11:00 AM)29.77 "Hg (Apr 20, 2:00 PM)
Average73 °F81%30.01 "Hg
* Reported Apr 11 6:00 PM — Apr 26 6:00 PM, Florianópolis, Weather by CustomWeather, © 2015

Note: Actual official high and low records may vary slightly from our data, if they occured in-between our weather recording intervals... More about our weather records

Advertising

Florianópolis weather history for previous 24 hours

 ConditionsComfort  
Time TempWeatherWind HumidityBarometerVisibility
6:00 PM
Sun, Apr 26
72 °FPassing clouds.3 mph78%30.12 "HgN/A
5:00 PM73 °FPassing clouds.8 mph74%30.09 "HgN/A
4:00 PM75 °FScattered clouds.12 mph69%30.09 "HgN/A
3:00 PM77 °FScattered clouds.10 mph65%30.09 "HgN/A
2:00 PM79 °FScattered clouds.10 mph58%30.12 "HgN/A
1:00 PM79 °FScattered clouds.5 mph58%30.12 "HgN/A
12:00 PM77 °FScattered clouds.7 mph61%30.15 "HgN/A
11:00 AM75 °FPassing clouds.6 mph61%30.18 "HgN/A
10:00 AM73 °FPassing clouds.5 mph65%30.18 "HgN/A
9:00 AM70 °FPassing clouds.5 mph69%30.18 "HgN/A
8:00 AM66 °FPassing clouds.6 mph78%30.15 "HgN/A
7:00 AM64 °FPassing clouds.3 mph83%30.15 "HgN/A
6:00 AM64 °FPassing clouds.3 mph83%30.12 "HgN/A
5:00 AM66 °FPassing clouds.3 mph83%30.15 "HgN/A
4:00 AM66 °FPassing clouds.3 mph83%30.15 "HgN/A
3:00 AM66 °FPassing clouds.5 mph83%30.15 "HgN/A
2:00 AM66 °FPassing clouds.3 mph83%30.15 "HgN/A
1:00 AM66 °FPassing clouds.3 mph83%30.15 "HgN/A
12:00 AM68 °FPassing clouds.3 mph78%30.15 "HgN/A
11:00 PM
Sat, Apr 25
68 °FPassing clouds.5 mph78%30.15 "HgN/A
10:00 PM68 °FPassing clouds.3 mph83%30.15 "HgN/A
9:00 PM70 °FPassing clouds.3 mph78%30.15 "HgN/A
8:00 PM70 °FPassing clouds.8 mph78%30.15 "HgN/A
7:00 PM70 °FPassing clouds.6 mph78%30.15 "HgN/A
Weather by CustomWeather, © 2015

See weather overviewHow to use our weather pages